1503979201.02,1964,18.38,74178.3,0.97,-33.55,-33.83,0,*72
1503979202.24,1965,18.38,74178.3,0.97,-33.55,-33.89,0,*79
1503979203.46,1966,18.38,74176.8,0.93,-33.73,-33.95,0,*77
1503979204.68,1967,18.38,74178.8,0.93,-33.61,-33.95,0,*75
1503979205.89,1968,18.38,74176.0,0.93,-33.61,-33.95,0,*7A
1503979207.13,1969,18.38,74176.0,0.93,-33.61,-33.89,0,*76
1503979208.36,1970,18.38,74182.0,0.93,-33.73,-33.95,0,*70
1503979209.61,1971,18.38,74178.5,0.93,-33.73,-33.89,0,*7C
1503979210.88,1972,18.38,74176.8,0.91,-33.77,-34.01,0,*7E
1503979212.17,1973,18.38,74178.0,0.91,-33.73,-34.01,0,*7B
1503979213.44,1974,18.38,74176.8,0.87,-33.73,-34.01,0,*7B
1503979214.71,1975,18.38,74178.5,0.91,-33.61,-33.89,0,*79
1503979215.98,1976,18.38,74180.5,0.91,-33.43,-33.89,0,*7A
1503979217.23,1977,18.38,74176.3,0.91,-33.55,-33.89,0,*7C
1503979218.5,1978,18.38,74180.3,0.91,-33.43,-33.77,0,*75
1503979219.71,1979,18.38,74182.5,0.89,-33.61,-33.95,0,*71
1503979220.95,1980,18.38,74182.5,0.89,-33.61,-33.77,0,*7B
1503979222.22,1981,18.38,74176.5,0.87,-33.49,-33.73,0,*7A
1503979223.45,1982,18.38,74180.3,0.89,-33.31,-33.67,0,*7D
1503979224.67,1983,18.38,74180.0,0.89,-33.31,-33.67,0,*7C
1503979225.89,1984,18.38,74182.3,0.89,-33.43,-33.67,0,*7E
1503979227.13,1985,18.38,74180.0,0.89,-33.49,-33.77,0,*74
1503979228.35,1986,18.38,74178.8,0.89,-33.43,-33.67,0,*7C
1503979229.57,1987,18.38,74182.0,0.89,-33.27,-33.67,0,*7F
1503979230.81,1988,18.38,74180.3,0.87,-33.21,-33.49,0,*74
1503979232.01,1989,18.38,74182.3,0.89,-32.91,-33.21,0,*7F
1503979233.25,1990,18.38,74180.5,0.87,-32.97,-33.37,0,*78
1503979234.44,1991,18.38,74184.8,0.89,-32.91,-33.15,0,*71
1503979235.66,1992,18.38,74182.8,0.89,-32.79,-33.15,0,*74
1503979236.85,1993,18.38,74180.0,0.89,-32.91,-33.15,0,*73
1503979238.1,1994,18.38,74180.8,0.89,-32.79,-33.27,0,*73
1503979239.35,1995,18.38,74180.5,0.89,-32.79,-33.27,0,*72
1503979240.57,1996,18.38,74178.3,0.89,-32.79,-33.15,0,*70
1503979241.82,1997,18.38,74182.8,0.89,-32.75,-33.09,0,*70
1503979243.07,1998,18.38,74180.0,0.89,-32.79,-33.27,0,*7F
1503979244.3,1999,18.44,74184.5,0.91,-32.69,-33.03,0,*70
1503979245.52,2000,18.38,74180.3,0.91,-32.91,-33.21,0,*7D
1503979246.75,2001,18.38,74176.0,0.93,-32.75,-33.03,0,*74
1503979248.0,2002,18.38,74182.8,0.91,-32.75,-33.03,0,*75
1503979249.25,2003,18.38,74178.8,0.93,-32.85,-33.09,0,*73
1503979250.47,2004,18.38,74182.0,0.93,-32.91,-33.27,0,*7D
1503979251.69,2005,18.38,74178.3,0.93,-33.09,-33.37,0,*7D
1503979252.89,2006,18.38,74180.0,0.93,-33.03,-33.37,0,*74
1503979254.12,2007,18.38,74182.3,0.91,-33.03,-33.21,0,*70
1503979255.31,2008,18.38,74178.5,0.93,-33.03,-33.37,0,*7A
1503979256.54,2009,18.38,74180.5,0.93,-33.03,-33.43,0,*78
1503979257.74,2010,18.38,74178.0,0.93,-32.91,-33.37,0,*79
1503979258.93,2011,18.38,74182.5,0.93,-32.91,-33.21,0,*7F
1503979260.18,2012,18.38,74180.8,0.93,-32.85,-33.09,0,*73
1503979261.38,2013,18.38,74178.5,0.93,-32.69,-32.91,0,*70
1503979262.6,2014,18.38,74178.0,0.97,-32.79,-33.03,0,*78
1503979263.83,2015,18.38,74178.8,0.97,-32.79,-33.21,0,*79
1503979265.02,2016,18.38,74182.8,0.93,-32.91,-33.37,0,*7F
1503979266.27,2017,18.38,74180.0,0.97,-32.97,-33.31,0,*7A
1503979267.52,2018,18.38,74182.8,0.97,-32.97,-33.31,0,*75
1503979268.74,2019,18.38,74182.3,0.97,-32.79,-33.15,0,*72
1503979269.96,2020,18.38,74182.5,0.97,-32.79,-33.15,0,*78
1503979271.21,2021,18.38,74180.8,0.99,-32.79,-33.21,0,*70
1503979272.47,2022,18.38,74182.3,0.99,-32.79,-33.03,0,*73
1503979273.69,2023,18.38,74180.3,0.97,-32.85,-33.15,0,*78
1503979274.91,2024,18.38,74184.3,0.97,-32.85,-33.37,0,*7F
1503979276.16,2025,18.38,74182.3,0.99,-33.03,-33.31,0,*79
1503979277.41,2026,18.38,74180.5,0.97,-32.97,-33.31,0,*78
1503979278.65,2027,18.38,74182.8,0.99,-32.97,-33.21,0,*76
1503979279.9,2028,18.38,74184.8,0.99,-32.85,-33.03,0,*7A
1503979281.15,2029,18.38,74184.5,0.99,-32.79,-33.21,0,*78
1503979282.41,2030,18.38,74182.5,0.99,-32.79,-33.03,0,*70
1503979283.64,2031,18.38,74184.3,0.97,-32.69,-32.85,0,*71
1503979284.91,2032,18.38,74186.8,0.99,-32.63,-32.85,0,*76
1503979286.14,2033,18.38,74180.5,1.01,-32.19,-32.39,0,*4D
1503979287.37,2034,18.38,74186.8,1.01,-32.63,-32.91,0,*45
1503979288.62,2035,18.38,74184.8,1.03,-32.57,-32.79,0,*47
1503979289.86,2036,18.38,74186.0,1.03,-32.23,-32.63,0,*4C
1503979291.08,2037,18.38,74186.3,1.01,-32.39,-32.63,0,*44
1503979292.31,2038,18.38,74186.3,1.03,-32.23,-32.51,0,*43
1503979293.53,2039,18.38,74184.3,1.03,-32.57,-32.91,0,*4D
1503979294.78,2040,18.44,74186.5,1.03,-32.63,-32.91,0,*44
1503979296.06,2041,18.38,74186.0,1.03,-32.63,-33.09,0,*45
1503979297.26,2042,18.38,74184.0,1.05,-32.57,-32.91,0,*47
1503979298.51,2043,18.38,74184.0,1.05,-32.75,-33.09,0,*46
1503979299.74,2044,18.38,74180.3,1.05,-32.75,-33.03,0,*4B
1503979300.99,2045,18.38,74180.8,1.05,-32.85,-33.09,0,*4F
1503979302.19,2046,18.38,74184.5,1.05,-32.69,-33.03,0,*44
1503979303.43,2047,18.38,74182.0,1.07,-32.69,-32.91,0,*4D
1503979304.67,2048,18.38,74186.5,1.07,-32.69,-32.91,0,*42
1503979305.92,2049,18.38,74186.8,1.07,-32.51,-32.85,0,*4D
1503979307.2,2050,18.38,74184.8,1.07,-32.45,-32.85,0,*40
1503979308.46,2051,18.38,74182.5,1.07,-32.51,-32.75,0,*4B
1503979309.7,2052,18.38,74180.3,1.07,-32.69,-33.03,0,*43
1503979310.92,2053,18.38,74182.0,1.07,-32.91,-33.37,0,*42
1503979312.16,2054,18.38,74178.5,1.07,-33.03,-33.37,0,*4F
1503979313.44,2055,18.38,74178.8,1.07,-32.85,-33.27,0,*40
1503979314.67,2056,18.38,74174.8,1.07,-33.03,-33.37,0,*4D
1503979315.89,2057,18.38,74174.3,1.05,-32.91,-33.27,0,*45
1503979317.15,2058,18.38,74170.3,1.07,-32.75,-33.03,0,*44
1503979318.38,2059,18.38,74172.0,1.07,-32.91,-33.37,0,*48
1503979319.64,2060,18.38,74176.8,1.07,-33.21,-33.43,0,*4B
1503979320.9,2061,18.38,74174.0,1.07,-33.37,-33.43,0,*4D
1503979322.15,2062,18.38,74176.5,1.07,-33.27,-33.55,0,*48
1503979323.38,2063,18.38,74178.0,1.07,-33.21,-33.55,0,*4F
1503979324.58,2064,18.38,74178.3,1.05,-33.37,-33.55,0,*4D
1503979325.8,2065,18.38,74178.3,1.05,-33.37,-33.73,0,*48
1503979327.06,2066,18.38,74180.5,1.07,-33.55,-33.77,0,*49
1503979328.33,2067,18.38,74178.0,1.07,-33.61,-33.73,0,*4B
1503979329.58,2068,18.38,74180.5,1.07,-33.61,-33.95,0,*4C
1503979330.82,2069,18.38,74180.5,1.05,-33.43,-33.77,0,*43
1503979332.1,2070,18.38,74180.0,1.07,-33.61,-33.77,0,*49
1503979333.38,2071,18.38,74180.5,1.07,-33.43,-33.73,0,*4C
1503979334.57,2072,18.44,74180.8,1.05,-33.37,-33.55,0,*4A
1503979335.82,2073,18.38,74182.3,1.05,-33.27,-33.61,0,*4D
1503979337.05,2074,18.38,74182.3,1.05,-33.21,-33.43,0,*4C
1503979338.3,2075,18.38,74180.8,1.05,-33.09,-33.43,0,*47
1503979339.56,2076,18.44,74182.8,1.07,-33.03,-33.43,0,*4C
1503979340.79,2077,18.38,74182.5,1.07,-33.03,-33.37,0,*4E
1503979341.99,2078,18.44,74184.8,1.05,-32.91,-33.37,0,*49
1503979343.25,2079,18.38,74180.8,1.07,-33.09,-33.37,0,*4A
1503979344.5,2080,18.38,74184.8,1.07,-32.75,-33.21,0,*41
1503979345.73,2081,18.44,74184.8,1.05,-32.85,-33.21,0,*4D
1503979346.96,2082,18.44,74184.0,1.05,-32.57,-32.75,0,*41
1503979348.19,2083,18.38,74182.5,1.07,-32.57,-32.57,0,*42
1503979349.44,2084,18.38,74180.8,1.07,-32.75,-33.03,0,*45
1503979350.69,2085,18.44,74182.3,1.09,-32.79,-33.15,0,*41
1503979351.94,2086,18.44,74182.0,1.09,-32.79,-33.15,0,*42
1503979353.17,2087,18.44,74182.0,1.09,-32.69,-33.03,0,*45
1503979354.41,2088,18.38,74180.5,1.07,-32.69,-32.91,0,*4E
1503979355.69,2089,18.44,74178.0,1.09,-32.63,-32.85,0,*4E
1503979356.91,2090,18.38,74176.3,1.11,-32.75,-33.15,0,*40
1503979358.16,2091,18.44,74180.5,1.09,-32.85,-33.03,0,*40
1503979359.44,2092,18.44,74176.8,1.09,-32.97,-33.27,0,*46
1503979360.69,2093,18.38,74178.0,1.09,-33.21,-33.49,0,*43
1503979361.89,2094,18.44,74182.3,1.11,-33.15,-33.37,0,*43
1503979363.16,2095,18.38,74182.3,1.09,-32.97,-33.31,0,*46
1503979364.41,2096,18.38,74180.0,1.11,-32.97,-33.27,0,*4B
1503979365.61,2097,18.38,74182.0,1.11,-32.91,-33.15,0,*4D
1503979366.86,2098,18.38,74182.3,1.09,-32.79,-33.15,0,*4D
1503979368.11,2099,18.38,74180.0,1.09,-32.79,-33.15,0,*4C
1503979369.34,2100,18.44,74182.0,1.11,-32.79,-33.15,0,*44
1503979370.57,2101,18.38,74182.5,1.11,-32.75,-33.15,0,*49
1503979371.82,2102,18.44,74182.0,1.11,-32.75,-33.09,0,*47
1503979373.05,2103,18.44,74180.5,1.11,-32.57,-32.79,0,*40
1503979374.28,2104,18.44,74180.0,1.11,-32.63,-32.91,0,*46
1503979375.53,2105,18.44,74176.3,1.11,-32.63,-33.09,0,*47
1503979376.76,2106,18.44,74178.8,1.11,-32.79,-33.15,0,*42
1503979378.04,2107,18.44,74174.5,1.13,-33.09,-33.27,0,*46
1503979379.26,2108,18.38,74174.3,1.13,-32.91,-33.15,0,*48
1503979380.51,2109,18.44,74172.5,1.13,-32.79,-33.15,0,*4F
1503979381.77,2110,18.38,74174.0,1.13,-32.79,-33.15,0,*47
1503979383.0,2111,18.44,74176.0,1.15,-32.85,-33.21,0,*44
1503979384.25,2112,18.38,74174.3,1.13,-32.91,-33.27,0,*42
1503979385.53,2113,18.38,74174.8,1.13,-33.09,-33.27,0,*43
1503979386.78,2114,18.38,74174.8,1.13,-33.15,-33.31,0,*4E
1503979388.06,2115,18.44,74176.8,1.13,-33.27,-33.49,0,*41
1503979389.33,2116,18.38,74174.3,1.13,-33.27,-33.61,0,*48
1503979390.58,2117,18.44,74176.0,1.13,-33.15,-33.31,0,*4D
1503979391.8,2118,18.44,74172.5,1.15,-33.27,-33.55,0,*47
1503979393.08,2119,18.44,74174.8,1.13,-33.43,-33.73,0,*46
1503979394.33,2120,18.44,74176.0,1.15,-33.43,-33.61,0,*49
1503979395.61,2121,18.44,74176.0,1.13,-33.49,-33.73,0,*47
1503979396.88,2122,18.44,74176.0,1.13,-33.43,-33.73,0,*4E
1503979398.16,2123,18.44,74178.5,1.13,-33.49,-33.89,0,*40
1503979399.44,2124,18.44,74176.3,1.13,-33.73,-33.89,0,*4E
1503979400.7,2125,18.44,74178.5,1.13,-33.73,-34.07,0,*4E
1503979401.93,2126,18.44,74178.8,1.11,-33.67,-33.89,0,*4B
1503979403.15,2127,18.38,74174.3,1.11,-33.73,-34.07,0,*4E
1503979404.36,2128,18.44,74176.8,1.11,-33.67,-34.07,0,*44
1503979405.61,2129,18.44,74172.8,1.09,-33.73,-34.07,0,*49
1503979406.86,2130,18.44,74174.8,1.09,-33.67,-33.89,0,*45
1503979408.08,2131,18.44,74176.3,1.11,-33.61,-33.83,0,*41
1503979409.3,2132,18.44,74180.0,1.09,-33.67,-33.95,0,*4A
1503979410.54,2133,18.44,74178.3,1.09,-33.55,-33.89,0,*47
1503979411.79,2134,18.44,74174.8,1.09,-33.73,-33.95,0,*49
1503979413.04,2135,18.44,74172.3,1.09,-33.55,-33.77,0,*40
1503979414.26,2136,18.44,74172.3,1.11,-33.61,-33.83,0,*46
1503979415.48,2137,18.44,74174.3,1.09,-33.67,-34.07,0,*43
1503979416.7,2138,18.44,74178.3,1.09,-33.67,-33.95,0,*40
1503979417.96,2139,18.38,74174.0,1.09,-33.73,-34.07,0,*48
1503979419.21,2140,18.44,74172.0,1.07,-33.73,-33.95,0,*44
1503979420.5,2141,18.44,74176.3,1.07,-33.73,-34.01,0,*4F
1503979421.73,2142,18.44,74178.3,1.05,-33.73,-33.95,0,*44
1503979423.01,2143,18.44,74176.0,1.07,-33.73,-34.01,0,*4D
1503979424.27,2144,18.44,74176.3,1.05,-33.73,-34.01,0,*48
1503979425.49,2145,18.44,74180.5,1.05,-33.73,-33.95,0,*43
1503979426.75,2146,18.44,74180.0,1.07,-33.73,-33.95,0,*42
1503979428.04,2147,18.44,74176.5,1.07,-33.73,-34.01,0,*49
1503979429.3,2148,18.44,74178.5,1.05,-33.73,-34.01,0,*44
1503979430.52,2149,18.44,74178.3,1.05,-33.73,-33.95,0,*4F
1503979431.77,2150,18.44,74182.3,1.05,-33.77,-34.01,0,*49
1503979433.0,2151,18.44,74176.8,1.05,-33.73,-33.95,0,*46
1503979434.22,2152,18.44,74178.3,1.05,-33.61,-33.95,0,*46
1503979435.44,2153,18.44,74176.0,1.05,-33.55,-33.77,0,*4C
1503979436.68,2154,18.44,74180.5,1.03,-33.61,-33.83,0,*41
1503979437.93,2155,18.44,74182.5,1.03,-33.67,-33.89,0,*4C
1503979439.17,2156,18.44,74180.0,1.03,-33.61,-33.83,0,*43
1503979440.42,2157,18.44,74180.3,1.03,-33.49,-33.83,0,*48
1503979441.66,2158,18.44,74178.3,1.03,-33.43,-33.83,0,*4D
1503979442.91,2159,18.44,74178.3,1.03,-33.67,-34.01,0,*47
1503979444.11,2160,18.38,74178.5,1.01,-33.83,-34.07,0,*43
1503979445.38,2161,18.44,74182.0,1.03,-33.77,-34.01,0,*4D
1503979446.63,2162,18.44,74176.0,1.03,-33.67,-34.01,0,*4F
1503979447.85,2163,18.44,74178.3,1.01,-33.61,-33.83,0,*47
1503979449.13,2164,18.44,74176.8,1.03,-33.77,-34.01,0,*48
1503979450.38,2165,18.44,74180.0,1.01,-33.77,-34.01,0,*4B
1503979451.6,2166,18.44,74182.0,1.01,-33.77,-34.07,0,*4E
1503979452.85,2167,18.44,74180.0,1.01,-33.77,-34.01,0,*49
1503979454.09,2168,18.44,74180.8,1.03,-33.77,-34.07,0,*42
1503979455.34,2169,18.44,74180.0,1.01,-33.77,-33.89,0,*40
1503979456.62,2170,18.44,74180.0,1.03,-33.77,-34.01,0,*4D
1503979457.84,2171,18.44,74178.8,1.01,-33.67,-33.89,0,*48
1503979459.09,2172,18.44,74182.5,1.01,-33.77,-34.01,0,*4D
1503979460.31,2173,18.44,74180.5,0.99,-33.83,-33.95,0,*7D
1503979461.56,2174,18.44,74182.0,0.99,-33.73,-34.07,0,*79
1503979462.82,2175,18.44,74180.3,0.99,-33.73,-33.95,0,*74
1503979464.07,2176,18.44,74182.8,0.99,-33.73,-34.07,0,*7B
1503979465.29,2177,18.44,74182.5,0.99,-33.67,-33.83,0,*74
1503979466.54,2178,18.38,74176.8,0.99,-33.73,-33.95,0,*79
1503979467.76,2179,18.44,74178.8,0.99,-33.67,-33.95,0,*7D
1503979468.95,2180,18.44,74182.5,0.97,-33.55,-33.95,0,*74
1503979470.2,2181,18.44,74180.3,0.99,-33.67,-33.89,0,*77
1503979471.43,2182,18.44,74178.3,0.97,-33.73,-33.95,0,*72
1503979472.65,2183,18.44,74182.0,0.97,-33.73,-33.95,0,*73
1503979473.87,2184,18.44,74182.5,0.99,-33.67,-33.83,0,*78
1503979475.12,2185,18.44,74182.0,0.99,-33.67,-33.89,0,*73
1503979476.34,2186,18.44,74182.8,0.97,-33.67,-33.89,0,*7E
1503979477.57,2187,18.44,74182.8,0.97,-33.73,-34.13,0,*7E
1503979478.77,2188,18.44,74182.5,0.97,-33.67,-33.83,0,*7A
1503979479.97,2189,18.44,74180.0,0.97,-33.37,-33.67,0,*74
1503979481.19,2190,18.44,74180.8,0.97,-33.55,-33.73,0,*7D
1503979482.43,2191,18.44,74178.8,0.99,-33.55,-33.73,0,*72
1503979483.65,2192,18.44,74180.5,0.97,-33.55,-33.89,0,*7A
1503979484.87,2193,18.44,74182.5,0.97,-33.73,-33.95,0,*72
1503979486.1,2194,18.44,74180.3,0.93,-33.73,-33.95,0,*71
1503979487.3,2195,18.44,74180.8,0.97,-33.83,-34.13,0,*72
1503979488.54,2196,18.44,74180.8,0.97,-33.49,-33.73,0,*76
1503979489.76,2197,18.44,74178.8,0.93,-33.55,-33.89,0,*7B
1503979490.99,2198,18.44,74178.3,0.93,-33.73,-33.95,0,*7D
1503979492.2,2199,18.44,74178.8,0.93,-33.55,-33.89,0,*75
1503979493.47,2200,18.44,74180.8,0.91,-33.61,-33.89,0,*73
1503979494.75,2201,18.44,74178.8,0.91,-33.73,-34.01,0,*76
1503979496.0,2202,18.44,74174.0,0.91,-33.73,-33.95,0,*7F
1503979497.22,2203,18.44,74178.3,0.93,-33.77,-34.13,0,*71
1503979498.45,2204,18.44,74182.5,0.93,-33.73,-34.13,0,*72
1503979499.67,2205,18.44,74180.8,0.93,-33.77,-33.95,0,*7E
1503979500.88,2206,18.44,74180.5,0.93,-33.61,-33.95,0,*7A
1503979502.1,2207,18.44,74180.8,0.93,-33.77,-33.95,0,*7C
1503979503.34,2208,18.44,74180.5,0.91,-33.61,-33.95,0,*76
1503979504.61,2209,18.44,74180.8,0.91,-33.61,-33.89,0,*7A
1503979505.85,2210,18.44,74182.5,0.91,-33.55,-33.77,0,*74
1503979507.1,2211,18.44,74180.0,0.91,-33.55,-33.77,0,*75
1503979508.37,2212,18.44,74182.0,0.91,-33.77,-34.01,0,*70
1503979509.62,2213,18.44,74180.5,0.93,-33.77,-34.01,0,*73
1503979510.87,2214,18.44,74182.0,0.91,-33.77,-33.95,0,*7C
1503979512.11,2215,18.44,74182.0,0.91,-33.61,-33.95,0,*7A
1503979513.35,2216,18.44,74178.5,0.91,-33.61,-33.95,0,*79
1503979514.63,2217,18.44,74180.3,0.91,-33.73,-34.01,0,*71
1503979515.85,2218,18.44,74176.0,0.89,-33.77,-34.07,0,*75
1503979517.07,2219,18.44,74178.8,0.89,-33.83,-34.01,0,*79
1503979518.26,2220,18.44,74182.8,0.89,-33.67,-33.95,0,*73
1503979519.45,2221,18.44,74176.8,0.89,-33.67,-33.95,0,*72
1503979520.7,2222,18.44,74182.8,0.91,-33.55,-33.77,0,*75
1503979521.92,2223,18.44,74182.0,0.89,-33.49,-33.95,0,*7C
1503979523.13,2224,18.44,74182.0,0.89,-33.61,-33.83,0,*76
1503979524.38,2225,18.44,74180.8,0.87,-33.73,-33.95,0,*7D
1503979525.6,2226,18.44,74182.0,0.87,-33.67,-33.83,0,*7C
1503979526.82,2227,18.44,74180.5,0.89,-33.31,-33.67,0,*7A
1503979528.07,2228,18.44,74180.5,0.87,-33.49,-33.67,0,*74
1503979529.28,2229,18.44,74180.3,0.87,-33.55,-33.83,0,*72
1503979530.53,2230,18.44,74176.8,0.87,-33.67,-33.89,0,*71
1503979531.74,2231,18.44,74178.0,0.87,-33.55,-33.83,0,*7B
1503979532.96,2232,18.44,74182.0,0.87,-33.67,-34.07,0,*72
1503979534.18,2233,18.44,74178.3,0.87,-33.83,-34.07,0,*79
1503979535.38,2234,18.44,74176.3,0.89,-33.67,-33.95,0,*76
1503979536.65,2235,18.44,74182.0,0.87,-33.73,-34.01,0,*76
1503979537.9,2236,18.44,74178.3,0.87,-33.67,-34.01,0,*70
1503979539.17,2237,18.44,74180.0,0.87,-33.31,-33.73,0,*70
1503979540.42,2238,18.44,74176.8,0.87,-33.55,-33.89,0,*78
1503979541.63,2239,18.44,74176.3,0.87,-33.55,-33.83,0,*73
1503979542.9,2240,18.44,74182.3,0.87,-33.49,-33.73,0,*7F
1503979544.15,2241,18.44,74180.8,0.85,-33.31,-33.73,0,*73
1503979545.37,2242,18.44,74182.5,0.85,-33.55,-33.73,0,*72
1503979546.64,2243,18.44,74176.5,0.83,-33.61,-33.89,0,*77
1503979547.86,2244,18.44,74182.5,0.85,-33.37,-33.73,0,*70
1503979549.08,2245,18.44,74182.8,0.85,-33.49,-33.83,0,*77
1503979550.33,2246,18.44,74178.8,0.85,-33.49,-33.73,0,*7B
1503979551.55,2247,18.44,74182.3,0.87,-33.55,-33.83,0,*7A
1503979552.76,2248,18.44,74182.5,0.87,-33.55,-33.83,0,*75
1503979554.01,2249,18.44,74178.8,0.87,-33.67,-33.89,0,*7F
1503979555.2,2250,18.44,74182.0,0.85,-33.55,-33.83,0,*7E
1503979556.45,2251,18.44,74180.5,0.87,-33.67,-34.01,0,*71
1503979557.67,2252,18.44,74182.0,0.85,-33.49,-33.83,0,*71
1503979558.89,2253,18.44,74180.8,0.85,-33.37,-33.73,0,*76
1503979560.17,2254,18.44,74178.8,0.83,-33.43,-33.77,0,*70
1503979561.39,2255,18.44,74182.0,0.85,-33.49,-33.83,0,*76
1503979562.66,2256,18.44,74184.5,0.83,-33.61,-33.89,0,*73
1503979563.87,2257,18.44,74182.8,0.85,-33.55,-33.77,0,*72
1503979565.14,2258,18.44,74178.8,0.83,-33.61,-33.89,0,*7D
1503979566.41,2259,18.44,74182.0,0.83,-33.43,-33.77,0,*7D
1503979567.61,2260,18.44,74180.8,0.85,-33.55,-33.83,0,*7D
1503979568.87,2261,18.44,74180.3,0.83,-33.61,-33.89,0,*77
1503979570.14,2262,18.44,74184.3,0.83,-33.61,-33.89,0,*74
1503979571.39,2263,18.44,74186.5,0.87,-33.37,-33.73,0,*77
1503979572.59,2264,18.44,74180.8,0.85,-33.21,-33.55,0,*71
1503979573.78,2265,18.44,74178.8,0.85,-33.21,-33.67,0,*71
1503979575.03,2266,18.44,74182.8,0.83,-33.21,-33.61,0,*72
1503979576.25,2267,18.44,74178.8,0.85,-33.27,-33.67,0,*75
1503979577.49,2268,18.5,74180.5,0.83,-33.21,-33.61,0,*7C
1503979578.77,2269,18.44,74178.3,0.83,-33.43,-33.77,0,*7E
1503979580.01,2270,18.44,74176.0,0.85,-33.49,-33.89,0,*7B
1503979581.23,2271,18.44,74178.5,0.85,-33.55,-33.89,0,*77
1503979582.48,2272,18.44,74180.3,0.83,-33.77,-34.13,0,*76
1503979583.7,2273,18.44,74180.5,0.85,-33.83,-34.01,0,*79
1503979584.92,2274,18.5,74182.5,0.85,-33.55,-33.73,0,*77
1503979586.19,2275,18.44,74182.5,0.83,-33.61,-33.89,0,*72
1503979587.44,2276,18.44,74182.0,0.83,-33.73,-34.07,0,*73
1503979588.72,2277,18.44,74180.8,0.83,-33.27,-33.73,0,*77
1503979589.99,2278,18.44,74182.5,0.83,-33.61,-33.73,0,*7A
1503979591.23,2279,18.44,74182.5,0.83,-33.55,-33.77,0,*78
1503979592.47,2280,18.44,74182.0,0.83,-33.61,-33.95,0,*75
1503979593.69,2281,18.44,74182.5,0.85,-33.49,-33.83,0,*7F
1503979594.89,2282,18.44,74182.5,0.85,-33.55,-33.83,0,*71
1503979596.16,2283,18.5,74186.8,0.79,-33.49,-33.89,0,*74
1503979597.4,2284,18.44,74184.3,0.81,-33.43,-33.89,0,*7E
1503979598.63,2285,18.44,74180.5,0.81,-33.37,-33.77,0,*7D
1503979599.85,2286,18.44,74186.0,0.81,-33.37,-33.77,0,*7E
1503979601.08,2287,18.44,74184.0,0.81,-33.37,-33.77,0,*7F
1503979602.3,2288,18.5,74186.0,0.81,-33.37,-33.73,0,*74
1503979603.53,2289,18.5,74184.8,0.81,-33.37,-33.73,0,*75
1503979604.8,2290,18.44,74184.3,0.79,-33.31,-33.77,0,*78
1503979606.01,2291,18.44,74184.5,0.81,-33.21,-33.61,0,*78
1503979607.23,2292,18.5,74184.0,0.81,-33.27,-33.55,0,*7A
1503979608.46,2293,18.5,74184.8,0.81,-33.37,-33.73,0,*7E
1503979609.68,2294,18.5,74184.0,0.81,-33.37,-33.77,0,*7D
1503979610.91,2295,18.5,74182.8,0.81,-33.37,-33.73,0,*78
1503979612.13,2296,18.5,74184.0,0.81,-33.37,-33.73,0,*7B
1503979613.38,2297,18.5,74184.0,0.81,-33.09,-33.61,0,*74
1503979614.6,2298,18.44,74182.3,0.81,-33.21,-33.73,0,*72
1503979615.82,2299,18.44,74182.5,0.81,-33.21,-33.73,0,*73
1503979617.04,2300,18.44,74180.3,0.83,-33.03,-33.55,0,*74
1503979618.29,2301,18.5,74184.8,0.83,-33.09,-33.55,0,*7F
1503979619.56,2302,18.5,74186.8,0.83,-33.43,-33.61,0,*75
1503979620.84,2303,18.5,74184.0,0.83,-33.09,-33.43,0,*7A
1503979622.07,2304,18.44,74186.0,0.83,-33.03,-33.37,0,*74
1503979623.34,2305,18.5,74186.5,0.79,-33.31,-33.77,0,*75
1503979624.56,2306,18.5,74186.8,0.83,-33.21,-33.55,0,*72
1503979625.84,2307,18.5,74184.8,0.83,-33.09,-33.43,0,*7E
1503979627.12,2308,18.5,74186.5,0.83,-33.09,-33.43,0,*71
1503979628.37,2309,18.5,74186.5,0.83,-33.03,-33.27,0,*78
1503979629.62,2310,18.5,74182.8,0.83,-33.03,-33.27,0,*70
1503979630.84,2311,18.5,74180.8,0.83,-33.03,-33.55,0,*74
1503979632.07,2312,18.5,74186.0,0.83,-33.21,-33.55,0,*77
1503979633.31,2313,18.5,74186.0,0.83,-33.21,-33.61,0,*71
1503979634.58,2314,18.5,74184.5,0.83,-33.27,-33.73,0,*73
1503979635.85,2315,18.5,74186.0,0.83,-33.27,-33.61,0,*71
1503979637.12,2316,18.5,74186.0,0.83,-33.27,-33.61,0,*72
1503979638.38,2317,18.5,74190.8,0.83,-33.27,-33.61,0,*73
1503979639.64,2318,18.5,74188.3,0.83,-33.03,-33.43,0,*7A
1503979640.89,2319,18.44,74186.5,0.83,-33.03,-33.43,0,*7B
1503979642.12,2320,18.5,74190.0,0.83,-33.03,-33.37,0,*72
1503979643.36,2321,18.5,74184.0,0.85,-32.97,-33.31,0,*7F
1503979644.58,2322,18.5,74184.8,0.85,-32.97,-33.21,0,*7D
1503979645.8,2323,18.5,74186.8,0.85,-32.85,-33.21,0,*7F
1503979647.05,2324,18.5,74184.5,0.83,-32.91,-33.27,0,*7D
1503979648.28,2325,18.5,74184.5,0.85,-32.57,-32.75,0,*76
1503979649.52,2326,18.5,74186.3,0.85,-32.29,-32.63,0,*7B
1503979650.75,2327,18.5,74184.0,0.85,-32.57,-32.79,0,*78
1503979651.99,2328,18.5,74184.5,0.87,-32.85,-33.15,0,*71
1503979653.24,2329,18.5,74184.0,0.87,-32.75,-33.03,0,*78
1503979654.49,2330,18.5,74186.0,0.87,-32.85,-33.15,0,*78
1503979655.73,2331,18.5,74184.8,0.87,-32.97,-33.37,0,*7A
1503979656.97,2332,18.5,74186.5,0.87,-32.97,-33.21,0,*7E
1503979658.19,2333,18.5,74186.0,0.89,-32.91,-33.27,0,*71
1503979659.44,2334,18.5,74186.5,0.87,-33.03,-33.49,0,*7A
1503979660.68,2335,18.5,74186.0,0.89,-33.09,-33.49,0,*7F
1503979661.91,2336,18.5,74186.8,0.87,-33.03,-33.37,0,*71
1503979663.12,2337,18.5,74184.8,0.89,-32.91,-33.27,0,*75
1503979664.34,2338,18.5,74188.3,0.89,-32.57,-33.09,0,*7C
1503979665.62,2339,18.5,74190.8,0.87,-32.85,-33.31,0,*77
1503979666.84,2340,18.5,74186.3,0.89,-32.79,-33.15,0,*72
1503979668.09,2341,18.5,74184.0,0.89,-32.79,-33.09,0,*7E
1503979669.34,2342,18.5,74184.5,0.87,-32.57,-32.85,0,*7A
1503979670.52,2343,18.5,74188.0,0.89,-32.51,-32.57,0,*7C
1503979671.72,2344,18.5,74184.8,0.89,-32.51,-32.69,0,*76
1503979672.92,2345,18.5,74184.8,0.89,-32.51,-32.69,0,*77
1503979674.14,2346,18.5,74180.3,0.89,-32.51,-32.79,0,*75
1503979675.37,2347,18.5,74186.5,0.91,-32.69,-32.91,0,*70
1503979676.63,2348,18.5,74184.3,0.91,-32.51,-32.75,0,*7E
1503979677.87,2349,18.5,74184.8,0.93,-32.45,-32.63,0,*7F
1503979679.1,2350,18.5,74186.0,0.93,-32.63,-32.91,0,*7E
1503979680.32,2351,18.5,74184.0,0.93,-32.75,-33.21,0,*72
1503979681.52,2352,18.5,74180.0,0.93,-32.69,-33.03,0,*7C
1503979682.74,2353,18.5,74180.3,0.93,-32.63,-32.91,0,*7D
1503979683.97,2354,18.5,74180.0,0.97,-32.79,-33.15,0,*78
1503979685.17,2355,18.5,74180.5,0.97,-33.03,-33.37,0,*75
1503979686.41,2356,18.5,74180.3,0.97,-32.97,-33.31,0,*7C
1503979687.61,2357,18.5,74180.3,0.97,-33.15,-33.37,0,*70
1503979688.8,2358,18.5,74180.0,0.93,-33.21,-33.55,0,*78
1503979690.05,2359,18.5,74184.3,0.93,-33.09,-33.43,0,*74
1503979691.27,2360,18.5,74184.5,0.91,-32.91,-33.21,0,*78
1503979692.49,2361,18.5,74184.5,0.93,-33.09,-33.55,0,*78
1503979693.71,2362,18.5,74186.0,0.93,-33.09,-33.55,0,*7B
1503979694.94,2363,18.5,74186.3,0.93,-32.91,-33.43,0,*7D
1503979696.18,2364,18.5,74184.0,0.93,-32.85,-33.09,0,*71
1503979697.43,2365,18.5,74186.8,0.93,-32.75,-33.09,0,*7F
1503979698.63,2366,18.5,74188.0,0.93,-32.91,-33.21,0,*7C
1503979699.88,2367,18.5,74188.8,0.93,-32.85,-33.27,0,*7E
1503979701.12,2368,18.5,74188.0,0.97,-32.63,-32.97,0,*77
1503979702.34,2369,18.5,74186.5,0.97,-32.45,-32.57,0,*7E
1503979703.56,2370,18.5,74186.3,0.97,-32.45,-32.69,0,*7B
1503979704.84,2371,18.5,74182.3,0.99,-32.79,-33.31,0,*77
1503979706.06,2372,18.5,74182.5,0.97,-33.03,-33.31,0,*76
1503979707.28,2373,18.5,74182.0,0.97,-33.03,-33.49,0,*78
1503979708.51,2374,18.5,74182.5,0.99,-33.03,-33.37,0,*78
1503979709.73,2375,18.5,74180.3,0.97,-32.97,-33.21,0,*7C
1503979710.98,2376,18.5,74180.5,0.99,-32.79,-33.21,0,*71
1503979712.2,2377,18.5,74180.0,0.97,-32.79,-33.21,0,*7E
1503979713.45,2378,18.5,74180.0,0.97,-32.79,-33.31,0,*70
1503979714.68,2379,18.5,74180.5,0.97,-32.85,-33.15,0,*74